Location: Unspecified
(0.0000°N, 0.0000°E)
Time: 07:08:26
(UTC+01:00)

Iridium 75 - Visible Passes

Search period start: 04 December 2016 00:00
Search period end: 14 December 2016 00:00
Orbit: 776 x 779 km, 86.4° (Epoch: 03 December)

Date Brightness Start Highest point End Pass type
(mag) Time Alt. Az. Time Alt. Az. Time Alt. Az.
04 Dec 7.5 04:57:26 23° SSW 04:57:26 23° SSW 04:59:36 10° SSW visible
05 Dec 7.8 04:24:31 23° S 04:24:31 23° S 04:26:28 10° S visible
06 Dec 8.6 03:51:35 15° SSE 03:51:35 15° SSE 03:52:34 10° SSE visible
08 Dec 8.5 04:26:06 12° SSW 04:26:06 12° SSW 04:26:26 10° S visible
